Location: *
(50.6089°N, 2.2719°E)
Time: 22:29:04
(UTC+00:00)

STARLINK-24 - Pass Details

Date: 18 October 2019
Orbit: 550 x 553 km, 53.0° (Epoch: 17 November)

Event Time Altitude Azimuth Distance (km) Brightness Sun altitude
Rises 19:19:35 0° 277° (W) 2,722 8.6 -23.8°
Reaches altitude 10° 19:21:50 10° 281° (W) 1,829 7.4 -24.1°
Enters shadow 19:25:35 58° 334° (NNW) 648 4.0 -24.7°
